Regional Weather Roundup
Issued by NWS

Home | Current Version | Previous Version | Graphics & Text | Print | Product List | Glossary On
Versions: 1 2 3 4 5 6 7 8 9 10 11 12 13 14 15 16 17 18 19 20 21 22 23 24 25 26 27 28 29 30 31 32 33 34 35 36 37 38 39 40 41 42 43 44 45 46 47 48 49 50
000
ASUS43 KLOT 282302
RWRIL

ILLINOIS REGIONAL WEATHER ROUNDUP
NATIONAL WEATHER SERVICE CHICAGO/ROMEOVILLE IL
600 PM CDT SAT MAR 28 2015

NOTE: "FAIR" INDICATES FEW OR NO CLOUDS BELOW 12,000 FEET WITH NO
SIGNIFICANT WEATHER AND/OR OBSTRUCTIONS TO VISIBILITY.

* THESE STATIONS ARE NOT UNDER NWS QUALITY CONTROL. THEY ALSO MAY NOT
  REPORT WEATHER SUCH AS PRECIPITATION OR FOG.

ILZ001-002-007-009-015-016-024-290000-
NORTHWEST ILLINOIS

CITY           SKY/WX    TMP DP  RH WIND       PRES   REMARKS
MOLINE         SUNNY     42   9  25 SE12      30.24F
STERLING*      SUNNY     39  14  35 SE7       30.26F WCI  34
$$

ILZ003-004-008-010-011-017-018-290000-
NORTH CENTRAL ILLINOIS

CITY           SKY/WX    TMP DP  RH WIND       PRES   REMARKS
ROCKFORD       SUNNY     39  11  31 MISG      30.27F
FREEPORT*      SUNNY     37  12  35 S9        30.27S WCI  31
$$

ILZ005-006-012>014-019>023-290000-
NORTHEAST ILLINOIS

CITY           SKY/WX    TMP DP  RH WIND       PRES   REMARKS
CHICAGO-OHARE  SUNNY     35   7  31 E6        30.28F WCI  30
CHICAGO-MIDWAY SUNNY     35   7  31 E7        30.30F WCI  29
AURORA         SUNNY     40   8  26 SW5       30.27S
LANSING*       SUNNY     33   8  35 E3        30.31S
WAUKEGAN       SUNNY     29  13  51 E10       30.29S WCI  20
DUPAGE AIRPORT SUNNY     39   6  25 S6        30.26F WCI  35
WHEELING       SUNNY     33   8  35 E6        30.30F WCI  28
NORTHERLY ISL    N/A     30   9  41 NE5         N/A  WCI  25
$$

LMZ740>746-290000-
SOUTHERN LAKE MICHIGAN

STATION/POSITION SKY/WX   TEMP    WIND        PRES    VSBY  WAVE
                          AIR SEA DIR/SP/G                  HT/PER
                          (F)     (DEG/KT/KT) (MB)    (MI)  (FT/S)
HARRISON CRIB              27      50/  5/  6   N/A
BURNHAM HARBOR             29      50/  6/  8   N/A
CALUMET HARBOR             29      30/  6/  8 1025.4F
BURNS HARBOR               27      10/  5/  8 1027.1F
MICHIGAN CITY              28     340/  6/  6   N/A
$$

ILZ025>027-034>036-040-047-049-050-058-095>099-290000-
WEST-CENTRAL ILLINOIS

CITY           SKY/WX    TMP DP  RH WIND       PRES   REMARKS
QUINCY         SUNNY     43  16  33 SE10      30.23F
$$

ILZ028>032-037-038-041>044-048-051>054-059>061-290000-
CENTRAL ILLINOIS

CITY           SKY/WX    TMP DP  RH WIND       PRES   REMARKS
DECATUR        SUNNY     40  15  36 VRB3      30.29S
PEORIA         SUNNY     42  11  28 CALM      30.27F
LINCOLN*       SUNNY     42  15  34 S6        30.28F
SPRINGFIELD    SUNNY     41  16  36 E6        30.28F
TAYLORVILLE    NOT AVBL
$$

ILZ033-039-045-046-055>057-062-063-290000-
EAST-CENTRAL ILLINOIS

CITY           SKY/WX    TMP DP  RH WIND       PRES   REMARKS
CHAMPAIGN      SUNNY     39  12  33 E8        30.28S WCI  33
DANVILLE*      SUNNY     37  11  33 CALM      30.27R
MATTOON        SUNNY     39  15  37 N6        30.28S WCI  35
$$

ILZ079-100>102-290000-
SOUTHWEST ILLINOIS

CITY           SKY/WX    TMP DP  RH WIND       PRES   REMARKS
ALTON          SUNNY     43  10  26 SE9       30.28S
BELLEVILLE     SUNNY     43  16  34 E7        30.27S
CAHOKIA*       SUNNY     45  17  32 SE7       30.27S
$$

ILZ064>066-069>071-074>076-080>082-084>086-088>090-092>094-290000-
SOUTH-CENTRAL ILLINOIS

CITY           SKY/WX    TMP DP  RH WIND       PRES   REMARKS
CARBONDALE     SUNNY     44  15  31 CALM      30.28S
MARION         SUNNY     45  16  31 E5        30.29S
MT. VERNON     SUNNY     45  14  29 SE5       30.30R
$$

ILZ067-068-072-073-078-083-087-091-290000-
SOUTHEAST ILLINOIS

CITY           SKY/WX    TMP DP  RH WIND       PRES   REMARKS
LAWRENCEVILLE  SUNNY     41  15  35 CALM      30.31R
HARRISBURG*    SUNNY     42  15  32 N6        30.31R
$$

ABBREVIATIONS USED IN REMARKS
   TC - TEMPERATURE IN CELSIUS
  WCI - WIND CHILL INDEX
   HX - HEAT INDEX
  VSB - VISIBILITY
$$




USA.gov is the U.S. government's official web portal to all federal, state and local government web resources and services.